When you browse on this site, cookies collect data to enhance your experience and personalize the content and advertising you see.
Visit our Privacy Policy to learn more. By continuing to use the site, you agree to this use of cookies and data.
EN

Hourly Weather San Jose de La Montana

Today, 4 August, Tuesday

Time Temperature Precipitation Wind Pressure Humidity
00:00 +10°C° 0.3 mm 1 mps 555 mmHg 93%
01:00 +10°C° 0 mm 1 mps 555 mmHg 91%
02:00 +10°C° 0 mm 1 mps 554 mmHg 91%
03:00 +9°C° 0 mm 1 mps 554 mmHg 91%
04:00 +9°C° 0 mm 1 mps 554 mmHg 91%
05:00 +9°C° 0 mm 0 mps 554 mmHg 89%
06:00 +10°C° 0 mm 0 mps 555 mmHg 88%
07:00 +12°C° 0 mm 1 mps 556 mmHg 86%
08:00 +14°C° 0 mm 1 mps 557 mmHg 75%
09:00 +16°C° 0 mm 1 mps 559 mmHg 65%
10:00 +20°C° 0 mm 1 mps 560 mmHg 54%
11:00 +20°C° 0.5 mm 1 mps 559 mmHg 58%
12:00 +20°C° 0.5 mm 1 mps 559 mmHg 61%
13:00 +21°C° 0.5 mm 1 mps 559 mmHg 65%
14:00 +20°C° 1.2 mm 1 mps 558 mmHg 71%
15:00 +19°C° 1.2 mm 1 mps 557 mmHg 77%
16:00 +18°C° 1.2 mm 1 mps 556 mmHg 83%
17:00 +15°C° 0.7 mm 1 mps 555 mmHg 87%
18:00 +14°C° 0.7 mm 1 mps 555 mmHg 92%
19:00 +12°C° 0.7 mm 1 mps 554 mmHg 96%
20:00 +12°C° 0.5 mm 1 mps 554 mmHg 96%
21:00 +11°C° 0.5 mm 1 mps 555 mmHg 96%
22:00 +11°C° 0.5 mm 1 mps 555 mmHg 96%
23:00 +11°C° 0.6 mm 1 mps 555 mmHg 95%

Tomorrow, 5 August, Wednesday

Time Temperature Precipitation Wind Pressure Humidity
00:00 +10°C° 0.6 mm 1 mps 555 mmHg 95%
01:00 +9°C° 0.6 mm 0 mps 554 mmHg 94%
02:00 +9°C° 0.3 mm 0 mps 554 mmHg 94%
03:00 +9°C° 0.3 mm 0 mps 554 mmHg 94%
04:00 +9°C° 0.3 mm 0 mps 554 mmHg 94%
05:00 +10°C° 0.1 mm 0 mps 554 mmHg 93%
06:00 +10°C° 0.1 mm 0 mps 555 mmHg 91%
07:00 +11°C° 0.1 mm 0 mps 555 mmHg 90%
08:00 +12°C° 0.3 mm 0 mps 556 mmHg 84%
09:00 +15°C° 0.3 mm 1 mps 557 mmHg 79%
10:00 +18°C° 0.3 mm 1 mps 558 mmHg 73%
11:00 +18°C° 1.1 mm 1 mps 558 mmHg 74%
12:00 +18°C° 1.1 mm 1 mps 558 mmHg 75%
13:00 +19°C° 1.1 mm 1 mps 558 mmHg 76%
14:00 +18°C° 1.5 mm 1 mps 557 mmHg 81%
15:00 +16°C° 1.5 mm 1 mps 556 mmHg 85%
16:00 +16°C° 1.5 mm 1 mps 555 mmHg 90%
17:00 +14°C° 0.8 mm 1 mps 555 mmHg 92%
18:00 +12°C° 0.8 mm 0 mps 554 mmHg 94%
19:00 +11°C° 0.8 mm 0 mps 554 mmHg 97%
20:00 +10°C° 0.5 mm 0 mps 554 mmHg 97%
21:00 +10°C° 0.5 mm 0 mps 555 mmHg 97%
22:00 +10°C° 0.5 mm 0 mps 555 mmHg 97%
23:00 +9°C° 0.2 mm 0 mps 555 mmHg 96%

Day after tomorrow, 6 August, Thursday

Time Temperature Precipitation Wind Pressure Humidity
00:00 +9°C° 0.2 mm 0 mps 554 mmHg 96%
01:00 +9°C° 0.2 mm 0 mps 554 mmHg 96%
02:00 +9°C° 0.1 mm 0 mps 554 mmHg 95%
03:00 +9°C° 0.1 mm 0 mps 554 mmHg 95%
04:00 +8°C° 0.1 mm 0 mps 553 mmHg 95%
05:00 +9°C° 0 mm 0 mps 554 mmHg 94%
06:00 +9°C° 0 mm 0 mps 554 mmHg 94%
07:00 +10°C° 0 mm 0 mps 555 mmHg 93%
08:00 +12°C° 0 mm 0 mps 556 mmHg 84%
09:00 +15°C° 0 mm 1 mps 558 mmHg 75%
10:00 +18°C° 0 mm 1 mps 559 mmHg 66%
11:00 +18°C° 0.7 mm 1 mps 558 mmHg 69%
12:00 +19°C° 0.7 mm 1 mps 558 mmHg 73%
13:00 +19°C° 0.7 mm 1 mps 557 mmHg 77%
14:00 +18°C° 1.6 mm 1 mps 556 mmHg 82%
15:00 +16°C° 1.6 mm 1 mps 556 mmHg 87%
16:00 +15°C° 1.6 mm 1 mps 555 mmHg 92%
17:00 +14°C° 1.1 mm 1 mps 555 mmHg 93%
18:00 +13°C° 1.1 mm 1 mps 554 mmHg 95%
19:00 +12°C° 1.1 mm 1 mps 554 mmHg 96%
20:00 +11°C° 0.4 mm 1 mps 554 mmHg 96%
21:00 +11°C° 0.4 mm 1 mps 555 mmHg 95%
22:00 +10°C° 0.4 mm 1 mps 555 mmHg 95%
23:00 +10°C° 0 mm 1 mps 555 mmHg 95%

7 August, Friday

Time Temperature Precipitation Wind Pressure Humidity
00:00 +10°C° 0 mm 1 mps 554 mmHg 95%
01:00 +10°C° 0 mm 1 mps 554 mmHg 95%
02:00 +10°C° 0 mm 1 mps 554 mmHg 94%
03:00 +9°C° 0 mm 1 mps 553 mmHg 93%
04:00 +9°C° 0 mm 1 mps 553 mmHg 92%
05:00 +10°C° 0 mm 1 mps 554 mmHg 91%
06:00 +10°C° 0 mm 1 mps 554 mmHg 89%
07:00 +11°C° 0 mm 1 mps 554 mmHg 87%
08:00 +14°C° 0 mm 1 mps 556 mmHg 76%
09:00 +16°C° 0 mm 1 mps 558 mmHg 64%
10:00 +20°C° 0 mm 1 mps 559 mmHg 52%
11:00 +20°C° 0.1 mm 2 mps 559 mmHg 50%
12:00 +21°C° 0.1 mm 2 mps 559 mmHg 49%
13:00 +21°C° 0.1 mm 2 mps 559 mmHg 48%
14:00 +20°C° 0.7 mm 2 mps 558 mmHg 56%
15:00 +19°C° 0.7 mm 2 mps 557 mmHg 63%
16:00 +18°C° 0.7 mm 2 mps 556 mmHg 71%
17:00 +16°C° 0.6 mm 1 mps 555 mmHg 79%
18:00 +14°C° 0.6 mm 1 mps 555 mmHg 87%
19:00 +12°C° 0.6 mm 1 mps 554 mmHg 95%
20:00 +11°C° 0.2 mm 1 mps 554 mmHg 95%
21:00 +11°C° 0.2 mm 1 mps 555 mmHg 95%
22:00 +10°C° 0.2 mm 1 mps 555 mmHg 96%
23:00 +10°C° 0 mm 1 mps 555 mmHg 95%

8 August, Saturday

Time Temperature Precipitation Wind Pressure Humidity
00:00 +10°C° 0 mm 1 mps 554 mmHg 95%
01:00 +9°C° 0 mm 0 mps 554 mmHg 95%
02:00 +10°C° 0 mm 1 mps 554 mmHg 94%
03:00 +10°C° 0 mm 1 mps 554 mmHg 92%
04:00 +10°C° 0 mm 1 mps 554 mmHg 91%
05:00 +10°C° 0 mm 1 mps 554 mmHg 89%
06:00 +11°C° 0 mm 1 mps 555 mmHg 87%
07:00 +11°C° 0 mm 1 mps 555 mmHg 85%
08:00 +14°C° 0 mm 1 mps 557 mmHg 74%
09:00 +18°C° 0 mm 1 mps 558 mmHg 63%
10:00 +20°C° 0 mm 1 mps 560 mmHg 52%
11:00 +21°C° 0.3 mm 1 mps 559 mmHg 53%
12:00 +21°C° 0.3 mm 1 mps 559 mmHg 54%
13:00 +22°C° 0.3 mm 1 mps 559 mmHg 56%
14:00 +20°C° 1.1 mm 2 mps 558 mmHg 64%
15:00 +18°C° 1.1 mm 2 mps 557 mmHg 73%
16:00 +17°C° 1.1 mm 2 mps 556 mmHg 81%
17:00 +15°C° 0.8 mm 1 mps 555 mmHg 86%
18:00 +14°C° 0.8 mm 1 mps 555 mmHg 91%
19:00 +12°C° 0.8 mm 1 mps 554 mmHg 95%
20:00 +12°C° 0.2 mm 1 mps 555 mmHg 95%
21:00 +11°C° 0.2 mm 1 mps 555 mmHg 96%
22:00 +10°C° 0.2 mm 0 mps 555 mmHg 96%
23:00 +10°C° 0.2 mm 0 mps 555 mmHg 96%

9 August, Sunday

Time Temperature Precipitation Wind Pressure Humidity
00:00 +9°C° 0.2 mm 0 mps 555 mmHg 96%
01:00 +9°C° 0.2 mm 0 mps 554 mmHg 95%
02:00 +9°C° 0 mm 0 mps 554 mmHg 94%
03:00 +10°C° 0 mm 0 mps 554 mmHg 93%
04:00 +10°C° 0 mm 0 mps 554 mmHg 91%
05:00 +10°C° 0 mm 0 mps 555 mmHg 91%
06:00 +10°C° 0 mm 0 mps 555 mmHg 90%
07:00 +11°C° 0 mm 0 mps 556 mmHg 90%
08:00 +14°C° 0 mm 1 mps 557 mmHg 78%
09:00 +18°C° 0 mm 1 mps 558 mmHg 66%
10:00 +20°C° 0 mm 1 mps 560 mmHg 54%
11:00 +21°C° 0.2 mm 1 mps 559 mmHg 54%
12:00 +21°C° 0.2 mm 1 mps 559 mmHg 55%
13:00 +22°C° 0.2 mm 1 mps 558 mmHg 55%
14:00 +21°C° 0.9 mm 1 mps 557 mmHg 64%
15:00 +18°C° 0.9 mm 2 mps 556 mmHg 72%
16:00 +17°C° 0.9 mm 2 mps 555 mmHg 81%
17:00 +16°C° 0.8 mm 1 mps 555 mmHg 86%
18:00 +14°C° 0.8 mm 1 mps 554 mmHg 90%
19:00 +12°C° 0.8 mm 1 mps 554 mmHg 95%
20:00 +12°C° 0.2 mm 1 mps 554 mmHg 96%
21:00 +11°C° 0.2 mm 1 mps 554 mmHg 96%
22:00 +10°C° 0.2 mm 0 mps 554 mmHg 96%
23:00 +10°C° 0.1 mm 0 mps 554 mmHg 96%
Show more